Portada
METAR-TAF:

METAR-TAF

Aeroports :

Macas, Equador

latitud: 02-17-57-S, longitud: 078-07-15-W, altitud: 1052 m

Observació

L'informe es va fer fa 8 hores i 22 minuts, a les 23:00 UTC
Vent 6 kt del Nord
Temperatura 22°C
Humitat 78%
Pressió 1013 hPa
Visibilitat 10 km o més
Núvols disperses a una alçada de 2300 ft
Cel ennuvolat a una alçada de 10000 ft

METAR: SEMC 142300Z 36006KT 9999 SCT023 BKN100 22/18 Q1013 RMK A2993

Hora: 02:22 (07:22 UTC)


TAF: manca

Observacions i pronòstics meteorològics de més de 4000 aeroports (METAR i TAF).

Les estacions disponibles són els punts grocs i vermells al mapa.

Posi el ratolí al punt desitjat per veure el nom de l'estació.

Feu clic per veure les observacions i els pronòstics meteorològics.

Per canviar el mapa: feu clic els botons verds amb una creu de color negre per apropar; al botó verd amb un guió per allunyar la imatge; o en les fletxes verdes per a mapes adjacents.


METAR-TAF: